[Iaude] MPEC G107: 2024 GO1 [a=2.12,e=0.54,i=0.2,H=27.4]
    mpec at cfa.harvard.edu 
    mpec at cfa.harvard.edu
       
    Tue Apr  9 01:27:44 EDT 2024
    
    
  
M.P.E.C. 2024-G107                                Issued 2024 April 9, 05:26 UT
     The Minor Planet Electronic Circulars contain information on unusual
         minor planets, routine data on comets and natural satellites,
         and occasional editorial announcements.  They are published
    on behalf of Division F of the International Astronomical Union by the
          Minor Planet Center, Smithsonian Astrophysical Observatory,
                          Cambridge, MA 02138, U.S.A.
			  
             Prepared using the Tamkin Foundation Computer Network
                              MPC at CFA.HARVARD.EDU
            URL https://www.minorplanetcenter.net/    ISSN 1523-6714
                                    2024 GO1                                    
Observations:
     K24G01O*1C2024 04 07.28340512 42 18.263-00 58 19.99         21.08GVEG107G96
     K24G01O 1C2024 04 07.28851012 42 21.323-00 58 35.15         21.15GVEG107G96
     K24G01O 1C2024 04 07.29870312 42 27.446-00 59 06.36         20.65GVEG107G96
     K24G01O KC2024 04 07.38916612 43 22.782-01 03 47.41         21.23GVEG107I52
     K24G01O KC2024 04 07.39089812 43 23.891-01 03 52.06         20.66GVEG107I52
     K24G01O KC2024 04 07.39263312 43 24.949-01 03 58.00         21.57GVEG107I52
     K24G01O KC2024 04 07.39436612 43 26.022-01 04 02.89         21.22GVEG107I52
     K24G01O KC2024 04 08.20380812 53 37.91 -01 50 16.4          21.0 GXEG107858
     K24G01O KC2024 04 08.21012312 53 42.61 -01 50 40.1          21.0 GXEG107858
     K24G01O KC2024 04 08.22249912 53 51.82 -01 51 26.1          20.7 GXEG107858
     K24G01O KC2024 04 08.24390212 54 08.838-01 52 38.60         20.60GVEG107I52
     K24G01O KC2024 04 08.24541912 54 09.947-01 52 44.40         20.72GVEG107I52
     K24G01O KC2024 04 08.24694612 54 11.102-01 52 50.09         21.10GVEG107I52
     K24G01O KC2024 04 08.24847412 54 12.226-01 52 55.70         21.26GVEG107I52
     K24G01O KC2024 04 09.18998713 08 25.90 -02 58 34.2          20.7 GVEG107H21
     K24G01O KC2024 04 09.19549313 08 31.04 -02 58 59.7          20.8 GVEG107H21
     K24G01O KC2024 04 09.20119113 08 36.42 -02 59 26.4          21.1 GVEG107H21
Observer details:
858 Tebbutt Observatory, Edgewood.  Observer F. B. Zoltowski.  0.51-m f/8.1
    Schmidt-Cassegrain + CCD.
G96 Mt. Lemmon Survey.  Observer H. Groeller.  Measurers T. Beuden, V. F.
    Carvajal, D. Fay, J. B. Fazekas, D. C. Fuls, A. R. Gibbs, A. D. Grauer, H.
    Groeller, J. K. Hogan, R. A. Kowalski, S. M. Larson, G. J. Leonard, D.
    Rankin, R. L. Seaman, F. C. Shelly, K. W. Wierzchos.  1.5-m reflector +
    10K CCD.
H21 Astronomical Research Observatory, Westfield.  Observer R. Holmes.
    Measurers T. Linder, R. Holmes, L. Horn.  0.81-m f/4.0 astrograph + CCD.
I52 Steward Observatory, Mt. Lemmon Station.  Observer J. K. Hogan.  Measurers
    T. Beuden, V. F. Carvajal, D. Fay, J. B. Fazekas, D. C. Fuls, A. R. Gibbs,
    A. D. Grauer, H. Groeller, J. K. Hogan, R. A. Kowalski, S. M. Larson, G.
    J. Leonard, D. Rankin, R. L. Seaman, F. C. Shelly, K. W. Wierzchos.  1.0-m
    prime focus + CCD.
Orbital elements:
2024 GO1                                                 Earth MOID = 0.0007 AU
Epoch 2024 Mar. 31.0 TT = JDT 2460400.5                 MPC                     
M 348.38972              (2000.0)            P               Q                  
n   0.32028618     Peri.  138.45982     -0.61531806     +0.78827425             
a   2.1156504      Node    93.56497     -0.72394858     -0.56373450             
e   0.5353846      Incl.    0.15611     -0.31190084     -0.24663155             
P   3.08           H   27.43          G   0.15           U   8                  
Residuals in seconds of arc
240407 G96  0.1+  0.4-    240407 I52  0.3-  0.2+    240408 I52  0.1+  0.0
240407 G96  0.0   0.1+    240408 858  0.1+  0.1-    240408 I52  0.2-  0.2+
240407 G96  0.1-  0.2+    240408 858  0.2-  0.2-    240409 H21  0.1+  0.1+
240407 I52  0.1-  0.6-    240408 858  0.7-  0.1+    240409 H21  0.3-  0.1+
240407 I52  0.3+  0.2+    240408 I52  0.3+  0.1+    240409 H21  0.2+  0.3-
240407 I52  0.1-  0.3-    240408 I52  0.1-  0.0
Ephemeris:
2024 GO1                 a,e,i = 2.12, 0.54, 0                   q = 0.9830
Date    TT    R. A. (2000) Decl.     Delta      r    Elong.  Phase     V
2024 03 10    11 30 25.0 +04 07 37   0.2138  1.2068   177.8     1.8    24.7
...
2024 03 25    11 42 56.7 +03 26 15   0.1187  1.1144   170.1     8.8    23.6
...
2024 04 02    12 04 47.5 +01 53 36   0.07437 1.0723   167.7    11.4    22.6
...
2024 04 08    12 50 50.9 -01 35 54   0.04415 1.0451   173.0     6.7    21.3
2024 04 09    13 05 14.2 -02 41 46   0.03957 1.0410   174.9     4.9    20.9
2024 04 10    13 23 19.2 -04 03 41   0.03523 1.0370   175.6     4.2    20.6
...
2024 04 16    17 31 32.9 -16 45 12   0.02207 1.0156   122.8    56.2    21.2
...
2024 04 24    21 17 06.1 -13 09 27   0.05050 0.9950    76.4   100.8    24.6
...
2024 05 09    22 23 38.7 -09 15 11   0.1234  0.9832    74.2    98.8    26.4
A. U. Tomatic                (C) Copyright 2024 MPC           M.P.E.C. 2024-G107
    
    
More information about the Iaude
mailing list